Simultaneous Nadir Overpasses (SNOs) Predictions

Prediction of SNOs between GOES-16 and AQUA Satellite Orbit:

Table of predicted SNOs for the next 14.0 days since TLE Epoch: 8/30/2019
Index Date Time (GOES-16) GOES-16 Lat,Lon AQUA Lat,Lon Distance(km) Time Diff (sec)
1 08/31/2019 06:29:23 0.00, -75.18 -0.27, -73.86 150.37 80
2 08/31/2019 18:50:47 -0.00, -75.19 -0.84, -79.04 438.90 80
3 09/02/2019 06:17:12 0.00, -75.19 -0.93, -70.91 487.41 80
4 09/02/2019 18:38:36 -0.00, -75.20 -0.19, -76.09 101.70 80
5 09/04/2019 18:29:05 -0.00, -75.21 0.47, -73.14 236.05 80
6 09/05/2019 06:50:20 0.00, -75.21 0.65, -78.30 350.66 80
7 09/07/2019 06:38:08 -0.00, -75.23 0.04, -75.33 12.65 80
8 09/09/2019 06:23:17 -0.00, -75.25 -0.62, -72.38 326.49 80
9 09/09/2019 18:44:40 0.00, -75.27 -0.50, -77.57 262.34 80
10 09/11/2019 18:35:09 0.00, -75.30 0.17, -74.62 77.55 80
11 09/13/2019 18:22:58 0.00, -75.34 0.78, -71.66 418.14 80




NCC Satellite Simultaneous Nadir Overpasses (SNOs) Prediction Service
